K4AXV-13 Weather Reports


time (UTC)temp
C
wind
direction
speed
KPH
gust
KPH
rain 1hr
cm
rain 24hr
cm
rain mn
cm
humidity
%
barometer
mb
20260904172308 31 108 6.4 6.4 0.00 0.00 0.00
20260904171809 31 131 6.4 6.4 0.00 0.00 0.00
20260904171305 31 128 1.6 3.2 0.00 0.00 0.00
20260904170806 31 129 4.8 3.2 0.00 0.00 0.00
20260904170304 31 159 9.7 8.0 0.00 0.00 0.00
20260904165805 31 136 8.0 4.8 0.00 0.00 0.00
20260904165305 31 139 6.4 6.4 0.00 0.00 0.00
20260904164805 31 110 9.7 4.8 0.00 0.00 0.00
20260904164302 32 117 11.3 9.7 0.00 0.00 0.00
20260904163300 32 120 3.2 3.2 0.00 0.00 0.00
20260904162257 32 217 0.0 1.6 0.00 0.00 0.00
20260904161756 32 184 1.6 0.0 0.00 0.00 0.00
20260904161255 32 190 0.0 1.6 0.00 0.00 0.00
20260904160754 33 142 0.0 0.0 0.00 0.00 0.00
20260904160252 32 215 1.6 3.2 0.00 0.00 0.00
20260904155255 29 148 6.4 6.4 0.00 0.00 0.00
20260904155251 32 356 3.2 3.2 0.00 0.00 0.00
20260904154752 32 307 3.2 8.0 0.00 0.00 0.00
20260904154250 33 263 1.6 3.2 0.00 0.00 0.00
20260904153250 32 290 0.0 3.2 0.00 0.00 0.00
20260904152751 32 293 0.0 0.0 0.00 0.00 0.00
20260904151750 33 297 1.6 3.2 0.00 0.00 0.00
20260904151248 32 293 3.2 0.0 0.00 0.00 0.00
20260904150749 32 323 3.2 1.6 0.00 0.00 0.00
20260904150247 32 267 0.0 1.6 0.00 0.00 0.00
20260904145748 32 338 3.2 4.8 0.00 0.00 0.00
20260904145247 31 307 1.6 0.0 0.00 0.00 0.00
20260904144748 31 307 0.0 3.2 0.00 0.00 0.00
20260904143747 30 134 8.0 3.2 0.00 0.00 0.00
20260904143244 30 125 3.2 9.7 0.00 0.00 0.00
20260904142743 30 131 8.0 8.0 0.00 0.00 0.00
20260904142242 30 134 4.8 4.8 0.00 0.00 0.00
20260904141241 30 146 4.8 4.8 0.00 0.00 0.00
20260904140742 29 148 6.4 6.4 0.00 0.00 0.00
20260904140240 28 110 8.0 8.0 0.00 0.00 0.00
20260904135741 28 297 3.2 1.6 0.00 0.00 0.00
20260904135440 28 131 1.6 6.4 0.00 0.00 0.00
20260904135238 28 44 1.6 0.0 0.00 0.00 0.00
20260904134739 28 131 1.6 6.4 0.00 0.00 0.00
20260904134237 28 231 3.2 1.6 0.00 0.00 0.00
20260904133738 28 113 1.6 3.2 0.00 0.00 0.00
20260904133235 28 141 3.2 3.2 0.00 0.00 0.00
20260904132737 28 267 0.0 0.0 0.00 0.00 0.00
20260904132235 27 267 0.0 0.0 0.00 0.00 0.00
20260904130735 27 103 0.0 0.0 0.00 0.00 0.00
20260904130232 27 103 0.0 0.0 0.00 0.00 0.00
20260904125232 27 103 0.0 0.0 0.00 0.00 0.00
20260904124231 27 103 0.0 0.0 0.00 0.00 0.00
20260904123227 26 103 0.0 0.0 0.00 0.00 0.00
20260904122228 26 103 0.0 0.0 0.00 0.00 0.00
20260904121727 26 103 0.0 0.0 0.00 0.00 0.00
20260904121223 26 103 0.0 0.0 0.00 0.00 0.00
20260904120724 25 103 0.0 0.0 0.00 0.00 0.00
20260904114722 25 103 0.0 0.0 0.00 0.00 0.00
20260904113720 25 103 0.0 0.0 0.00 0.00 0.00
20260904112717 25 103 0.0 0.0 0.00 0.00 0.00
20260904112216 25 103 0.0 0.0 0.00 0.00 0.00
20260904111715 25 103 0.0 0.0 0.00 0.00 0.00
20260904111214 24 103 0.0 0.0 0.00 0.00 0.00
20260904110212 24 103 0.0 0.0 0.00 0.00 0.00
20260904104710 24 103 0.0 0.0 0.00 0.00 0.00
20260904104206 24 103 0.0 0.0 0.00 0.00 0.00
20260904102204 24 103 0.0 0.0 0.00 0.00 0.00
20260904101737 24 103 0.0 0.0 0.00 0.00 0.00
20260904101705 24 103 0.0 0.0 0.00 0.00 0.00
20260904100704 24 103 0.0 0.0 0.00 0.00 0.00
20260904100201 24 103 0.0 0.0 0.00 0.00 0.00
20260904095159 24 103 0.0 0.0 0.00 0.00 0.00
20260904094700 24 103 0.0 0.0 0.00 0.00 0.00
20260904094158 25 103 0.0 0.0 0.00 0.00 0.00
20260904093659 24 103 0.0 0.0 0.00 0.00 0.00
20260904092658 24 103 0.0 0.0 0.00 0.00 0.00
20260904091657 25 103 0.0 0.0 0.00 0.00 0.00
20260904090153 24 103 0.0 0.0 0.00 0.00 0.00
20260904085653 24 103 0.0 0.0 0.00 0.00 0.00
20260904085151 24 103 0.0 0.0 0.00 0.00 0.00
20260904084149 25 103 0.0 0.0 0.00 0.00 0.00
20260904082650 24 103 0.0 0.0 0.00 0.00 0.00
20260904082147 25 103 0.0 0.0 0.00 0.00 0.00
20260904081648 25 103 0.0 0.0 0.00 0.00 0.00
20260904081238 25 103 0.0 0.0 0.00 0.00 0.00
20260904081144 25 103 0.0 0.0 0.00 0.00 0.00
20260904080645 25 103 0.0 0.0 0.00 0.00 0.00
20260904075139 25 103 0.0 0.0 0.00 0.00 0.00
20260904074640 25 103 0.0 0.0 0.00 0.00 0.00
20260904074137 25 103 0.0 0.0 0.00 0.00 0.00
20260904073638 25 103 0.0 0.0 0.00 0.00 0.00
20260904073134 25 103 0.0 0.0 0.00 0.00 0.00
20260904072133 25 103 0.0 0.0 0.00 0.00 0.00
20260904071634 25 103 0.0 0.0 0.00 0.00 0.00
20260904071132 25 103 0.0 0.0 0.00 0.00 0.00
20260904070633 25 103 0.0 0.0 0.00 0.00 0.00
20260904070131 25 103 0.0 0.0 0.00 0.00 0.00
20260904065632 25 103 0.0 0.0 0.00 0.00 0.00
20260904065128 24 103 0.0 0.0 0.00 0.00 0.00
20260904064629 25 103 0.0 0.0 0.00 0.00 0.00
20260904064126 25 103 0.0 0.0 0.00 0.00 0.00
20260904063627 25 103 0.0 0.0 0.00 0.00 0.00
20260904062625 25 103 0.0 0.0 0.00 0.00 0.00
20260904061123 25 103 0.0 0.0 0.00 0.00 0.00
20260904060623 25 103 0.0 0.0 0.00 0.00 0.00
20260904055621 25 103 0.0 0.0 0.00 0.00 0.00
20260904055119 25 103 0.0 0.0 0.00 0.00 0.00
20260904054620 25 103 0.0 0.0 0.00 0.00 0.00
20260904053618 25 103 0.0 0.0 0.00 0.00 0.00
20260904053114 25 103 0.0 0.0 0.00 0.00 0.00
20260904052615 25 103 0.0 0.0 0.00 0.00 0.00
20260904052113 25 103 0.0 0.0 0.00 0.00 0.00
20260904051613 25 103 0.0 0.0 0.00 0.00 0.00
20260904051110 26 103 0.0 0.0 0.00 0.00 0.00
20260904050611 25 103 0.0 0.0 0.00 0.00 0.00
20260904050109 25 103 0.0 0.0 0.00 0.00 0.00
20260904045610 25 103 0.0 0.0 0.00 0.00 0.00
20260904045106 25 103 0.0 0.0 0.00 0.00 0.00
20260904044607 25 103 0.0 0.0 0.00 0.00 0.00
20260904044103 25 103 0.0 0.0 0.00 0.00 0.00
20260904043604 25 103 0.0 0.0 0.00 0.00 0.00
20260904043102 25 103 0.0 0.0 0.00 0.00 0.00
20260904042602 26 103 0.0 0.0 0.00 0.00 0.00
20260904042101 26 103 0.0 0.0 0.00 0.00 0.00
20260904041601 25 103 0.0 0.0 0.00 0.00 0.00
20260904041059 26 103 0.0 0.0 0.00 0.00 0.00
20260904040600 26 103 0.0 0.0 0.00 0.00 0.00
20260904040058 26 103 0.0 0.0 0.00 0.00 0.00
20260904035559 26 103 0.0 0.0 0.00 0.00 0.00
20260904035057 26 103 0.0 0.0 0.00 0.00 0.00
20260904034557 26 103 0.0 0.0 0.00 0.00 0.00
20260904033556 26 103 0.0 0.0 0.00 0.00 0.00
20260904032051 26 103 0.0 0.0 0.00 0.00 0.00
20260904031552 26 103 0.0 0.0 0.00 0.00 0.00
20260904031049 26 103 0.0 0.0 0.00 0.00 0.00
20260904030550 26 103 0.0 0.0 0.00 0.00 0.00
20260904030048 26 103 0.0 0.0 0.00 0.00 0.00
20260904025045 26 103 0.0 0.0 0.00 0.00 0.00
20260904024546 26 103 0.0 0.0 0.00 0.00 0.00
20260904024044 26 103 0.0 0.0 0.00 0.00 0.00
20260904023545 26 103 0.0 0.0 0.00 0.00 0.00
20260904023042 26 103 0.0 0.0 0.00 0.00 0.00
20260904022543 26 103 0.0 0.0 0.00 0.00 0.00
20260904022041 26 103 0.0 0.0 0.00 0.00 0.00
20260904021539 26 103 0.0 0.0 0.00 0.00 0.00
20260904021038 26 103 0.0 0.0 0.00 0.00 0.00
20260904020539 26 103 0.0 0.0 0.00 0.00 0.00
20260904020035 26 103 0.0 0.0 0.00 0.00 0.00
20260904015535 26 103 0.0 0.0 0.00 0.00 0.00
20260904015034 26 103 0.0 0.0 0.00 0.00 0.00
20260904014534 26 103 0.0 0.0 0.00 0.00 0.00
20260904013529 26 103 0.0 0.0 0.00 0.00 0.00
20260904013027 27 103 0.0 0.0 0.00 0.00 0.00
20260904012024 26 103 0.0 0.0 0.00 0.00 0.00
20260904011021 26 103 0.0 0.0 0.00 0.00 0.00
20260904010522 27 103 0.0 0.0 0.00 0.00 0.00
20260904010019 27 103 0.0 0.0 0.00 0.00 0.00
20260904005519 27 103 0.0 0.0 0.00 0.00 0.00
20260904005016 26 103 0.0 0.0 0.00 0.00 0.00
20260904004517 27 103 0.0 0.0 0.00 0.00 0.00
20260904004015 27 103 0.0 0.0 0.00 0.00 0.00
20260904003516 27 103 0.0 0.0 0.00 0.00 0.00
20260904003013 27 103 0.0 0.0 0.00 0.00 0.00
20260904002514 27 103 0.0 0.0 0.00 0.00 0.00
20260904002013 28 103 0.0 0.0 0.00 0.00 0.00
20260904001513 27 103 0.0 0.0 0.00 0.00 0.00
20260904001011 27 103 0.0 0.0 0.00 0.00 0.00
20260904000512 28 103 0.0 0.0 0.00 0.00 0.00
20260904000010 28 103 0.0 0.0 0.00 0.00 0.00
20260903235007 28 152 1.6 3.2 0.00 0.00 0.00
20260903234508 28 103 1.6 1.6 0.00 0.00 0.00
20260903234006 28 146 3.2 3.2 0.00 0.00 0.00
20260903233507 28 129 3.2 3.2 0.00 0.00 0.00
20260903233006 28 124 4.8 3.2 0.00 0.00 0.00
20260903232506 28 159 3.2 3.2 0.00 0.00 0.00
20260903232004 28 111 3.2 1.6 0.00 0.00 0.00
20260903231504 29 132 4.8 6.4 0.00 0.00 0.00
20260903230503 29 138 4.8 4.8 0.00 0.00 0.00
20260903225502 29 132 9.7 11.3 0.00 0.00 0.00
20260903225001 29 150 6.4 8.0 0.00 0.00 0.00
20260903224000 29 38 4.8 4.8 0.00 0.00 0.00
20260903223501 29 139 1.6 6.4 0.00 0.00 0.00
20260903222959 29 131 6.4 4.8 0.00 0.00 0.00
20260903222500 30 122 8.0 8.0 0.00 0.00 0.00
20260903221958 29 127 9.7 8.0 0.00 0.00 0.00
20260903221459 29 149 8.0 8.0 0.00 0.00 0.00
20260903220957 29 150 8.0 9.7 0.00 0.00 0.00
20260903220458 29 158 8.0 12.9 0.00 0.00 0.00
20260903215956 29 118 8.0 8.0 0.00 0.00 0.00
20260903215457 29 98 11.3 11.3 0.00 0.00 0.00
20260903214456 30 131 9.7 8.0 0.00 0.00 0.00
20260903213455 30 141 11.3 8.0 0.00 0.00 0.00
20260903212953 30 146 1.6 8.0 0.00 0.00 0.00
20260903212454 30 120 11.3 11.3 0.00 0.00 0.00
20260903211952 30 79 4.8 3.2 0.00 0.00 0.00
20260903211453 30 158 6.4 6.4 0.00 0.00 0.00
20260903210949 31 124 8.0 11.3 0.00 0.00 0.00
20260903205946 30 104 3.2 6.4 0.00 0.00 0.00
20260903204943 30 125 14.5 14.5 0.00 0.00 0.00
20260903204444 31 132 6.4 11.3 0.00 0.00 0.00
20260903203942 30 83 9.7 3.2 0.00 0.00 0.00
20260903203443 30 118 8.0 4.8 0.00 0.00 0.00
20260903202941 30 120 9.7 11.3 0.00 0.00 0.00
20260903202442 30 134 9.7 12.9 0.00 0.00 0.00
20260903201940 30 114 8.0 8.0 0.00 0.00 0.00
20260903200937 31 124 9.7 14.5 0.00 0.00 0.00
20260903200438 31 104 6.4 3.2 0.00 0.00 0.00
20260903195437 31 121 12.9 14.5 0.00 0.00 0.00
20260903194935 31 122 14.5 9.7 0.00 0.00 0.00
20260903194436 31 159 11.3 6.4 0.00 0.00 0.00
20260903193434 31 39 1.6 0.0 0.00 0.00 0.00
20260903192932 31 111 9.7 6.4 0.00 0.00 0.00
20260903191931 31 94 14.5 9.7 0.00 0.00 0.00
20260903191432 31 128 6.4 6.4 0.00 0.00 0.00
20260903190930 31 104 11.3 3.2 0.00 0.00 0.00
20260903190431 31 143 11.3 8.0 0.00 0.00 0.00
20260903185929 31 93 6.4 16.1 0.00 0.00 0.00
20260903185430 31 115 6.4 8.0 0.00 0.00 0.00
20260903184927 31 100 12.9 8.0 0.00 0.00 0.00
20260903183927 31 143 6.4 6.4 0.00 0.00 0.00
20260903182926 31 129 11.3 12.9 0.00 0.00 0.00
20260903182426 31 141 9.7 8.0 0.00 0.00 0.00
20260903181924 31 138 9.7 6.4 0.00 0.00 0.00
20260903181424 31 121 11.3 12.9 0.00 0.00 0.00
20260903180920 31 115 11.3 14.5 0.00 0.00 0.00
20260903180420 31 143 11.3 14.5 0.00 0.00 0.00
20260903175920 31 46 1.6 0.0 0.00 0.00 0.00
20260903175420 31 128 11.3 9.7 0.00 0.00 0.00
20260903174916 31 139 11.3 9.7 0.00 0.00 0.00
20260903174417 30 142 8.0 8.0 0.00 0.00 0.00
20260903173915 31 148 11.3 12.9 0.00 0.00 0.00
20260903173417 31 146 11.3 11.3 0.00 0.00 0.00
20260903172914 31 135 11.3 11.3 0.00 0.00 0.00